| time (UTC) | temp F | wind direction | speed MPH | gust MPH | rain 1hr in | rain 24hr in | rain mn in | humidity % | barometer mb |
| 20260503171525 | 71 | 351 | 5.0 | 11.0 | 0.00 | 0.00 | 0.00 | 57 | 1011.5 |
| 20260503150109 | 62 | 110 | 0.0 | 0.0 | 0.00 | 0.00 | 0.00 | 45 | 1012.0 |
| 20260503100119 | 54 | 220 | 0.0 | 0.0 | 0.00 | 0.00 | 0.00 | 1 | 1011.9 |
| 20260503081536 | 55 | 131 | 0.0 | 0.0 | 0.00 | 0.00 | 0.00 | 1 | 1012.4 |
| 20260503071544 | 57 | 173 | 0.0 | 0.0 | 0.00 | 0.00 | 0.00 | 19 | 1012.7 |
| 20260503060103 | 60 | 58 | 0.0 | 0.0 | 0.00 | 0.00 | 0.00 | 56 | 1012.7 |
| 20260503054606 | 61 | 58 | 0.0 | 0.0 | 0.00 | 0.00 | 0.00 | 61 | 1012.7 |
| 20260503053004 | 61 | 64 | 0.0 | 0.0 | 0.00 | 0.00 | 0.00 | 63 | 1012.7 |
| 20260503051515 | 62 | 64 | 0.0 | 0.0 | 0.00 | 0.00 | 0.00 | 66 | 1012.7 |
| 20260503050012 | 62 | 63 | 0.0 | 0.0 | 0.00 | 0.00 | 0.00 | 67 | 1012.7 |
| 20260503044527 | 63 | 63 | 0.0 | 0.0 | 0.00 | 0.00 | 0.00 | 67 | 1012.6 |
| 20260503043028 | 63 | 63 | 0.0 | 0.0 | 0.00 | 0.00 | 0.00 | 67 | 1012.5 |
| 20260503041534 | 64 | 64 | 0.0 | 0.0 | 0.00 | 0.00 | 0.00 | 67 | 1012.4 |
| 20260503040035 | 64 | 63 | 0.0 | 1.0 | 0.00 | 0.00 | 0.00 | 67 | 1012.3 |
| 20260503034539 | 64 | 71 | 0.0 | 1.0 | 0.00 | 0.00 | 0.00 | 67 | 1012.1 |
| 20260503033043 | 64 | 61 | 0.0 | 2.0 | 0.00 | 0.00 | 0.00 | 67 | 1011.7 |
| 20260503031547 | 64 | 38 | 0.0 | 3.0 | 0.00 | 0.00 | 0.00 | 66 | 1011.4 |
| 20260503030121 | 64 | 94 | 0.0 | 4.0 | 0.00 | 0.00 | 0.00 | 67 | 1011.3 |
| 20260503024604 | 64 | 288 | 1.0 | 4.0 | 0.00 | 0.00 | 0.00 | 67 | 1011.7 |
| 20260503023059 | 65 | 274 | 0.0 | 1.0 | 0.00 | 0.00 | 0.00 | 66 | 1012.1 |
| 20260503021607 | 65 | 274 | 0.0 | 1.0 | 0.00 | 0.00 | 0.00 | 65 | 1012.5 |
| 20260503020104 | 65 | 100 | 2.0 | 8.0 | 0.00 | 0.00 | 0.00 | 67 | 1013.0 |
| 20260503014501 | 66 | 86 | 3.0 | 8.0 | 0.00 | 0.00 | 0.00 | 66 | 1012.7 |
| 20260503013005 | 67 | 115 | 1.0 | 5.0 | 0.00 | 0.00 | 0.00 | 65 | 1012.2 |
| 20260503011508 | 68 | 40 | 1.0 | 6.0 | 0.00 | 0.00 | 0.00 | 64 | 1012.1 |
| 20260503010018 | 68 | 56 | 0.0 | 6.0 | 0.00 | 0.00 | 0.00 | 63 | 1012.1 |
| 20260503004519 | 68 | 64 | 0.0 | 4.0 | 0.00 | 0.00 | 0.00 | 62 | 1012.0 |
| 20260503003021 | 70 | 77 | 0.0 | 5.0 | 0.00 | 0.00 | 0.00 | 59 | 1012.0 |
| 20260503001525 | 70 | 354 | 0.0 | 6.0 | 0.00 | 0.00 | 0.00 | 60 | 1011.8 |
| 20260503000033 | 68 | 323 | 1.0 | 7.0 | 0.00 | 0.00 | 0.00 | 62 | 1011.8 |
| 20260502234541 | 68 | 52 | 2.0 | 8.0 | 0.00 | 0.00 | 0.00 | 62 | 1011.8 |
| 20260502233045 | 67 | 71 | 2.0 | 8.0 | 0.00 | 0.00 | 0.00 | 63 | 1012.1 |
| 20260502231550 | 67 | 22 | 1.0 | 5.0 | 0.00 | 0.00 | 0.00 | 63 | 1012.3 |
| 20260502230054 | 67 | 16 | 0.0 | 8.0 | 0.00 | 0.00 | 0.00 | 62 | 1012.5 |
| 20260502224557 | 66 | 319 | 0.0 | 7.0 | 0.00 | 0.00 | 0.00 | 64 | 1012.7 |
| 20260502223102 | 66 | 79 | 3.0 | 9.0 | 0.00 | 0.00 | 0.00 | 63 | 1013.2 |
| 20260502221501 | 65 | 352 | 1.0 | 7.0 | 0.00 | 0.00 | 0.00 | 64 | 1013.4 |
| 20260502220005 | 64 | 30 | 2.0 | 9.0 | 0.00 | 0.00 | 0.00 | 65 | 1013.4 |
| 20260502214506 | 63 | 70 | 4.0 | 8.0 | 0.00 | 0.00 | 0.00 | 65 | 1013.6 |
| 20260502213032 | 63 | 227 | 0.0 | 3.0 | 0.00 | 0.00 | 0.00 | 65 | 1013.7 |
| 20260502211513 | 63 | 10 | 3.0 | 7.0 | 0.00 | 0.00 | 0.00 | 65 | 1013.9 |
| 20260502210017 | 63 | 47 | 0.0 | 6.0 | 0.00 | 0.00 | 0.00 | 65 | 1014.2 |
| 20260502204522 | 62 | 46 | 2.0 | 7.0 | 0.00 | 0.00 | 0.00 | 65 | 1014.3 |
| 20260502203025 | 60 | 347 | 5.0 | 10.0 | 0.00 | 0.00 | 0.00 | 66 | 1014.5 |
| 20260502201532 | 60 | 27 | 0.0 | 3.0 | 0.00 | 0.00 | 0.00 | 66 | 1014.7 |
| 20260502200033 | 60 | 58 | 2.0 | 7.0 | 0.00 | 0.00 | 0.00 | 65 | 1015.0 |
| 20260502194538 | 60 | 224 | 0.0 | 2.0 | 0.00 | 0.00 | 0.00 | 65 | 1015.2 |
| 20260502193041 | 59 | 352 | 2.0 | 6.0 | 0.00 | 0.00 | 0.00 | 66 | 1015.5 |
| 20260502191550 | 58 | 49 | 0.0 | 4.0 | 0.00 | 0.00 | 0.00 | 66 | 1015.7 |
| 20260502190049 | 58 | 84 | 1.0 | 4.0 | 0.00 | 0.00 | 0.00 | 65 | 1015.8 |
| 20260502184551 | 58 | 68 | 3.0 | 6.0 | 0.00 | 0.00 | 0.00 | 64 | 1015.8 |
| 20260502183054 | 55 | 219 | 0.0 | 1.0 | 0.00 | 0.00 | 0.00 | 62 | 1015.9 |
| 20260502181614 | 54 | 37 | 0.0 | 3.0 | 0.00 | 0.00 | 0.00 | 60 | 1016.0 |